User: anonymous   Login
Location: Unspecified
(0.0000°N, 0.0000°E)
Time: 09:15:10
(UTC+02:00)
Language:

ARIANE 5 R/B - Orbit

View from above orbital plane
View from above orbital plane
View from above satellite
View from above satellite

Ground track
Ground track

The orbit data is extracted from the following two-line orbital elements,

1 28787U 05028B   17082.48303719 -.00000286 +00000-0 -76828-3 0  9992
2 28787 007.0355 069.0839 7167395 136.2996 008.2537 02.26564930096145
Epoch (UTC): 23 March 2017 11:35:34
Eccentricity: 0.7167395
inclination: 7.0355°
perigee height: 558 km
apogee height: 35660 km
right ascension of ascending node: 69.0839°
argument of perigee: 136.2996°
revolutions per day: 2.26564930
mean anomaly at epoch: 8.2537°
orbit number at epoch: 9614

The dashed part of the orbit path shows where the satellite is in the earth's shadow,  

DLR